weather.gov     
National Weather Service

Miscellaneous Local Product
NWS Homepage
This page is being discontinued on March 12, 2014.
The same data is available at this site. Please update your bookmarks.
Thank you, and we apologize for the inconvenience.
Please send an email to SR-SRH.Webmaster@noaa.gov with any concerns.


Current Version
Previous Version:    01  02  03  04  05  06  07  08  09  10  11  12  13  14  15  16  17  18  19  20  21  22  23  24  25  26  27  28  29  30  
   31  32  33  34  35  36  37  38  39  40  41  42  43  44  45  46  47  48  49  50  51  52  53  54  55  56  57  58  59  60  
[Printable]
057
AXUS43 KLBF 020210
MISLBF


WESTERN AND NORTH CENTRAL NEBRASKA HOURLY WEATHER ROUNDUP
NATIONAL WEATHER SERVICE NORTH PLATTE NE
900 PM CDT MON SEP 01 2014

***STATIONS NOT REPORTING VARIABLES SUCH AS SKY/WEATHER OR
PRESSURE ARE PROVIDED BY THE NEBRASKA DEPARTMENT OF
ROADS...RAWS...AND APRS NETWORKS...AND ARE NOT UNDER
NATIONAL WEATHER SERVICE QUALITY CONTROL***

...OBSERVATIONS IN AND NEAR THE EASTERN PANHANDLE OF NEBRASKA...

CITY           SKY/WX    TMP DP  RH WIND       PRES   REMARKS
PINE RIDGE     CLEAR     54  52  93 MISG      29.99R
CHADRON        PTCLDY    57  52  83 CALM      29.99R
ALLIANCE       MOCLDY    57  48  72 NE6       30.02R
SIDNEY         MOCLDY    67  42  40 NE8       30.01R
WHITECLAY        N/A     51  49  93 CALM        N/A
RUSHVILLE        N/A     53  47  78 W6          N/A
GORDON           N/A     55  48  77 NE71        N/A
CRESCENT LAKE    N/A     59  47  64 CALM        N/A
LISCO            N/A     66  49  53 W14         N/A
BIG SPRINGS      N/A     73  57  57 CALM        N/A
$$

...OBSERVATIONS IN NORTH CENTRAL NEBRASKA...

CITY           SKY/WX    TMP DP  RH WIND       PRES   REMARKS
VALENTINE      CLOUDY    57  52  83 NE8       29.93F
THEDFORD       MOCLDY    56  55  94 NW5       29.97R
AINSWORTH      CLOUDY    57  54  89 N3        29.95R
O`NEILL        RAIN      60  57  92 NW20      29.98R
ORD            TSTM      57  54  89 N17G52    30.00R FOG
BROKEN BOW     HVY RAIN  59  54  83 NE20G31   29.94R
SPRINGVIEW       N/A     57  55  92 W3          N/A
ROSE             N/A     60  59  99 NE17        N/A
NEWPORT          N/A     59  58  96 W5          N/A
COMSTOCK         N/A     70  64  80 S14         N/A
CHAMBERS         N/A     59  57  92 W9G17       N/A
EWING            N/A     67  61  81 CALM        N/A
$$

...OBSERVATIONS IN SOUTHWEST NEBRASKA AND FAR NORTHEAST COLORADO...

CITY           SKY/WX    TMP DP  RH WIND       PRES   REMARKS
WRAY             N/A     69  51  53 SE8       29.95R
HOLYOKE        FAIR      64  55  72 SE3       29.95R
IMPERIAL       CLEAR     70  50  49 S9        29.93R
OGALLALA       LGT RAIN  64  53  67 N5G12     29.95R
NORTH PLATTE   PTCLDY    64  56  75 CALM      29.93R
MCCOOK         CLEAR     66  56  70 E9G23     29.91S
LEXINGTON      CLEAR     63  58  84 S7        29.90S
PAXTON           N/A     71  57  61 SE3         N/A
SUTHERLAND       N/A     64  55  71 W17         N/A
BRADY            N/A     64  54  70 CALM        N/A
GOTHENBURG       N/A     70  53  53 SE3         N/A
CALLAWAY         N/A     66  57  72 S8          N/A
$$

...SOME WEATHER OBSERVATIONS FROM AROUND THE REGION...

CITY           SKY/WX    TMP DP  RH WIND       PRES   REMARKS
DENVER         PTCLDY    66  44  45 E8        30.05R
LARAMIE        MOCLDY    58  31  35 NW9       30.17R
CHEYENNE       MOCLDY    60  43  53 NE8       30.12R
SCOTTSBLUFF    PTCLDY    62  47  57 NE8       30.02R
RAPID CITY     PTCLDY    54  50  86 CALM      29.97R
PIERRE         CLOUDY    62  52  69 N5        29.89R
WINNER         LGT RAIN  59  56  89 W12       29.93R
SIOUX FALLS    MOCLDY    66  56  70 CALM      29.86R
OMAHA          MOCLDY    68  63  84 N5        29.88R
GRAND ISLAND   CLEAR     63  59  87 S5        29.89S
KANSAS CITY    CLOUDY    73  69  87 CALM      29.86R THUNDER
WICHITA        MOCLDY    78  68  71 NE22      29.84S
HAYS           CLEAR     70  61  73 E6        29.90S
LIBERAL        CLEAR     79  63  57 E7        29.92R
GOODLAND       CLEAR     65  53  65 SE6       29.96R
$$




U.S. Dept. of Commerce
NOAA National Weather Service
1325 East West Highway
Silver Spring, MD 20910
E-mail: w-nws.webmaster@noaa.gov
Page last modified: May 16, 2007
NATIONAL WEATHER SERVICE: for Safety, for Work, for Fun - FOR LIFE